TimeEDT,TemperatureF,Dew PointF,Humidity,Sea Level PressureIn,VisibilityMPH,Wind Direction,Wind SpeedMPH,Gust SpeedMPH,PrecipitationIn,Events,Conditions,WindDirDegrees,DateUTC
12:53 AM,37.0,35.1,93,29.80,6.0,SW,18.4,27.6,0.07,Rain,Light Rain,220,2013-10-26 04:53:00
1:05 AM,37.0,35.1,93,29.75,6.0,SW,18.4,27.6,0.02,Rain,Light Rain,230,2013-10-26 05:05:00
1:53 AM,37.0,35.1,93,29.75,7.0,SW,20.7,28.8,0.07,Rain,Light Rain,230,2013-10-26 05:53:00
2:53 AM,37.9,37.0,97,29.70,7.0,SW,20.7,35.7,0.05,Snow,Light Snow,220,2013-10-26 06:53:00
3:11 AM,37.9,36.0,93,29.65,7.0,SW,20.7,31.1,0.01,Rain,Light Rain,220,2013-10-26 07:11:00
3:41 AM,39.0,36.0,89,29.64,10.0,SW,23.0,31.1,0.01,,Overcast,220,2013-10-26 07:41:00
3:53 AM,39.0,36.0,89,29.66,10.0,SW,18.4,34.5,0.01,,Overcast,220,2013-10-26 07:53:00
4:53 AM,39.9,36.0,86,29.63,10.0,SW,18.4,-,0.00,Rain,Light Rain,220,2013-10-26 08:53:00
5:53 AM,41.0,35.1,79,29.61,10.0,SW,20.7,29.9,0.00,,Mostly Cloudy,230,2013-10-26 09:53:00
6:30 AM,41.0,35.1,79,29.58,10.0,SW,16.1,25.3,0.00,Rain-Thunderstorm,Light Thunderstorms and Rain,230,2013-10-26 10:30:00
6:49 AM,39.2,35.6,87,29.61,2.0,West,15.0,28.8,0.11,Rain-Thunderstorm,Heavy Thunderstorms and Rain,270,2013-10-26 10:49:00
6:53 AM,39.0,35.1,86,29.64,2.5,West,18.4,28.8,0.12,Rain-Thunderstorm,Heavy Thunderstorms and Rain,260,2013-10-26 10:53:00
7:00 AM,39.0,36.0,89,29.59,6.0,WSW,17.3,28.8,0.01,Rain-Thunderstorm,Light Thunderstorms and Rain,250,2013-10-26 11:00:00
7:09 AM,39.0,36.0,89,29.60,10.0,WSW,13.8,-,0.01,Rain,Light Rain,240,2013-10-26 11:09:00
7:53 AM,39.0,36.0,89,29.63,10.0,WSW,9.2,-,0.01,,Mostly Cloudy,240,2013-10-26 11:53:00
8:53 AM,37.9,37.0,97,29.65,10.0,SW,4.6,-,N/A,,Mostly Cloudy,230,2013-10-26 12:53:00
9:53 AM,41.0,39.0,93,29.65,10.0,West,8.1,-,0.00,,Mostly Cloudy,270,2013-10-26 13:53:00
10:53 AM,42.1,34.0,73,29.66,10.0,Variable,5.8,17.3,N/A,,Overcast,0,2013-10-26 14:53:00
11:53 AM,42.1,33.1,70,29.68,10.0,WNW,11.5,27.6,N/A,,Overcast,300,2013-10-26 15:53:00
12:53 PM,41.0,32.0,70,29.71,10.0,WNW,8.1,21.9,0.00,,Overcast,300,2013-10-26 16:53:00
1:53 PM,41.0,33.1,73,29.72,10.0,WNW,10.4,23.0,0.00,,Mostly Cloudy,300,2013-10-26 17:53:00
2:53 PM,41.0,30.9,67,29.73,10.0,WNW,13.8,26.5,0.00,,Overcast,300,2013-10-26 18:53:00
3:31 PM,41.0,33.1,73,29.71,10.0,NW,10.4,24.2,0.00,,Overcast,320,2013-10-26 19:31:00
3:41 PM,42.1,33.1,70,29.72,10.0,WNW,9.2,17.3,0.00,Rain,Light Rain,300,2013-10-26 19:41:00
3:49 PM,42.8,33.8,70,29.72,10.0,WNW,10.4,27.6,0.00,Rain,Light Rain,290,2013-10-26 19:49:00
3:53 PM,42.1,33.1,70,29.75,10.0,WNW,16.1,27.6,0.00,,Overcast,300,2013-10-26 19:53:00
4:02 PM,41.0,32.0,70,29.73,10.0,WNW,12.7,25.3,0.00,Rain,Light Rain,290,2013-10-26 20:02:00
4:53 PM,41.0,33.1,73,29.78,10.0,WNW,12.7,24.2,0.00,,Mostly Cloudy,300,2013-10-26 20:53:00
5:00 PM,39.9,33.1,77,29.75,10.0,NW,16.1,25.3,N/A,,Overcast,310,2013-10-26 21:00:00
5:10 PM,39.9,33.1,77,29.76,10.0,WNW,11.5,25.3,N/A,,Overcast,290,2013-10-26 21:10:00
5:24 PM,39.0,34.0,82,29.77,10.0,WNW,8.1,24.2,0.00,,Overcast,290,2013-10-26 21:24:00
5:53 PM,37.0,34.0,89,29.82,5.0,NW,11.5,20.7,0.02,Rain,Rain,320,2013-10-26 21:53:00
6:53 PM,37.0,34.0,89,29.86,7.0,WNW,6.9,-,0.01,Rain,Rain,300,2013-10-26 22:53:00
7:51 PM,35.6,33.8,93,29.85,10.0,Variable,6.9,-,0.01,Rain,Light Rain,0,2013-10-26 23:51:00
7:53 PM,36.0,34.0,93,29.89,10.0,WNW,8.1,-,0.01,Rain,Light Rain,300,2013-10-26 23:53:00
8:01 PM,36.0,33.1,89,29.86,7.0,WNW,9.2,-,0.00,Rain,Light Rain,300,2013-10-27 00:01:00
8:53 PM,35.1,33.1,92,29.91,4.0,NNW,6.9,-,0.04,Rain,Light Rain,330,2013-10-27 00:53:00
9:17 PM,34.0,32.0,92,29.88,2.5,Variable,4.6,-,0.03,Snow,Light Snow,0,2013-10-27 01:17:00
9:20 PM,34.0,32.0,92,29.88,3.0,NW,4.6,-,0.03,Snow,Light Snow,310,2013-10-27 01:20:00
9:53 PM,34.0,32.0,92,29.92,4.0,West,8.1,-,0.05,Rain,Rain,280,2013-10-27 01:53:00
10:12 PM,34.0,32.0,92,29.89,4.0,WNW,8.1,-,0.02,Snow,Light Snow,300,2013-10-27 02:12:00
10:53 PM,34.0,32.0,92,29.94,6.0,Variable,6.9,-,0.04,Snow,Light Snow,0,2013-10-27 02:53:00
11:53 PM,34.0,32.0,92,29.95,10.0,West,3.5,-,0.00,,Mostly Cloudy,270,2013-10-27 03:53:00